Regional Weather Roundup
Issued by NWS

Home | Current Version | Previous Version | Text Only | Print | Product List | Glossary On
Versions: 1 2 3 4 5 6 7 8 9 10 11 12 13 14 15 16 17 18 19 20 21 22 23 24 25 26 27 28 29 30 31 32 33 34 35 36 37 38 39 40 41 42 43 44 45 46 47 48 49 50
000
ASUS43 KMKX 211310
RWRWI

WISCONSIN REGIONAL WEATHER ROUNDUP
NATIONAL WEATHER SERVICE MILWAUKEE/SULLIVAN WI
700 AM CST TUE NOV 21 2017

NOTE: "FAIR" INDICATES FEW OR NO CLOUDS BELOW 12,000 FEET WITH NO
SIGNIFICANT WEATHER AND/OR OBSTRUCTIONS TO VISIBILITY.

WIZ001-002-006>008-014>016-023>028-211400-
NORTHWEST WISCONSIN

CITY           SKY/WX    TMP DP  RH WIND       PRES   REMARKS
SUPERIOR ARPT  CLOUDY    23  11  61 NW13G24   29.75R WCI  11
ASHLAND        CLOUDY    26  13  57 W17G30    29.68R WCI  13
HAYWARD        CLOUDY    25  10  53 NW9G24    29.69R WCI  15
SIREN          CLOUDY    24  11  57 NW21G29   29.77R WCI  10
CUMBERLAND     CLOUDY    25  12  58 NW17G30   29.72R WCI  11
RICE LAKE      CLOUDY    26  14  59 W17G30    29.74R WCI  14
CHETEK         CLOUDY    26  14  60 NW13G25   29.72R WCI  15
LADYSMITH      CLOUDY    28  16  60 NW22G30   29.68R WCI  14
EAU CLAIRE     CLOUDY    27  12  53 NW18G37   29.74R WCI  14
MENOMONIE      CLOUDY    28  14  56 W16G24    29.76R WCI  15
NEW RICHMOND   CLOUDY    26  12  56 NW23G32   29.79R WCI  11
OSCEOLA        CLOUDY    26  12  54 NW17G25   29.83R WCI  13
$$

WIZ003>005-009-010-017-018-211400-
NORTH CENTRAL WISCONSIN

CITY           SKY/WX    TMP DP  RH WIND       PRES   REMARKS
MANITOWISH WTR CLOUDY    25  15  67 NW18G32   29.57R WCI  11
ARBOR VITAE    CLOUDY    29  19  65 NW14G23   29.56R WCI  19
WOODRUFF       CLOUDY    29  19  65 NW14G23   29.56R WCI  19
RHINELANDER    CLOUDY    29  16  58 NW15G31   29.56R WCI  18
EAGLE RIVER    CLOUDY    27  15  60 NW21G33   29.54R WCI  13
LAND O LAKES   FLURRIES  27  17  65 W16G30    29.54R WCI  15
PHILLIPS       CLOUDY    27  15  61 NW9G24    29.60R WCI  17
TOMAHAWK       CLOUDY    29  17  59 W14G20    29.58R WCI  19
MEDFORD        CLOUDY    28  18  64 W20G33    29.61R WCI  15
MERRILL        CLOUDY    32  20  60 NW13G24   29.57R WCI  23
$$

WIZ029-030-035-036-043>047-211400-
CENTRAL WISCONSIN

CITY           SKY/WX    TMP DP  RH WIND       PRES   REMARKS
WAUSAU         PTCLDY    31  20  63 W17G31    29.56R WCI  19
MOSINEE        PTCLDY    32  21  64 W18G30    29.58R WCI  20
MARSHFIELD     CLOUDY    31  19  61 W25G38    29.61R WCI  17
STEVENS POINT  PTCLDY    31  18  58 W12G28    29.60R WCI  22
WAUPACA        MOCLDY    38  20  48 W20G33    29.59R WCI  28
WAUTOMA        MOCLDY    37  15  40 W20G30    29.62R WCI  27
WISC RAPIDS    CLEAR     33  20  58 NW16G25   29.63R WCI  23
CAMP DOUGLAS   PTCLDY    34  14  44 W22G33    29.67R WCI  22
$$

WIZ011>013-019>022-031-037>040-048>050-211400-
NORTHEAST WISCONSIN

CITY           SKY/WX    TMP DP  RH WIND       PRES   REMARKS
ANTIGO         MOCLDY    31  19  62 NW18G28   29.54R WCI  19
SHAWANO        CLEAR     37  23  55 W14G23    29.54R WCI  29
OCONTO         CLEAR     37  22  55 W14G29    29.52R WCI  28
STURGEON BAY   CLEAR     39  25  57 W18G26    29.50R WCI  30
GREEN BAY      PTCLDY    38  25  59 W17G28    29.54R WCI  28
MANITOWOC      CLOUDY    41  25  53 W8        29.56R
APPLETON       PTCLDY    37  18  44 W16G31    29.54R WCI  28
CLINTONVILLE   MOCLDY    37  23  56 W14G22    29.55R WCI  29
OSHKOSH        CLOUDY    39  18  42 W15G30    29.56R WCI  31
$$

WIZ032>034-041-042-053>061-211400-
SOUTHWEST WISCONSIN

CITY           SKY/WX    TMP DP  RH WIND       PRES   REMARKS
LA CROSSE      PTCLDY    33  18  53 NW21G29   29.75R WCI  21
SPARTA         CLEAR     32  17  53 NW15G25   29.72R WCI  22
VIROQUA        CLEAR     32  17  54 NW21G28   29.70R WCI  20
BOSCOBEL       CLOUDY    39  11  31 NW15G22   29.72R WCI  31
PRAIRIE DU CHI CLOUDY    36  12  38 NW25G52   29.76R WCI  23
PLATTEVILLE    MOCLDY    39  17  41 W20G25    29.70R WCI  29
$$

WIZ056-057-062-063-064-067-068-211400-
SOUTH CENTRAL WISCONSIN

CITY           SKY/WX    TMP DP  RH WIND       PRES   REMARKS
REEDSBURG      CLOUDY    37  12  36 W16G24    29.65R WCI  27
BARABOO/DELLS  CLOUDY    38  12  35 W12G20    29.63R WCI  30
LONE ROCK      CLOUDY    40  13  33 W16G26    29.68R WCI  31
MINERAL POINT  CLOUDY    39  18  41 W21       29.68R WCI  29
MADISON        CLOUDY    42  22  44 W9G24     29.63R
MIDDLETON      CLOUDY    42  20  40 W20G25    29.63R
WATERTOWN      CLOUDY    42  28  58 W9        29.61R
MONROE         CLOUDY    41  27  56 W23G31    29.66R
JANESVILLE     CLOUDY    43  32  65 W10       29.64R
$$

WIZ051-052-058>065-066-070>072-211400-
SOUTHEAST WISCONSIN

CITY           SKY/WX    TMP DP  RH WIND       PRES   REMARKS
MILWAUKEE      CLOUDY    43  33  68 SW10      29.60R
WAUKESHA       CLOUDY    43  28  56 SW12G18   29.60R
MILWAUKEE/TIMM CLOUDY    43  27  52 W16G22    29.60R
RACINE         MOCLDY    43  33  68 SW13      29.63R
BURLINGTON     CLOUDY    44  37  76 SW13      29.63R
KENOSHA        CLOUDY    43  32  65 SW15      29.63R
FOND DU LAC    MOCLDY    39  23  52 W10       29.58R WCI  32
SHEBOYGAN      CLOUDY    43  24  47 W12G22    29.56R
WEST BEND      CLOUDY    43  28  56 W16G22    29.57R
JUNEAU         PTCLDY    41  26  56 W7G23     29.61R
$$

LSZ147-162-211400-
LAKE SUPERIOR

STATION/POSITION TIME  TEMP    WIND        PRES    WAVE
                       AIR SEA DIR/SP/G            HT/PER
                 (UTC) (F)     (DEG/KT/KT) (MB)    (FT/S)
DEVILS ISLAND    1200   27     280/ 28/ 34 1002.8R
SAXON HARBOR     1240   29     290/ 16/ 29 1003.7R
$$

LMZ867-665-643>646-211400-
LAKE MICHIGAN

STATION/POSITION TIME  TEMP    WIND        PRES    WAVE
                       AIR SEA DIR/SP/G            HT/PER
                 (UTC) (F)     (DEG/KT/KT) (MB)    (FT/S)
N MID LAKE BUOY  1250   43 48  270/ 25/ 31  997.2R   9/ 8
NORTHPORT PIER   1247   41     280/ 12/ 28  997.6R
KEWAUNEE LAKESHO 1242   42     280/  6/ 15  998.7R
SHEBOYGAN LAKESH 1300   45     270/ 12/ 15 1001.0R
PORT WASHINGTON  1230   46     250/  8/ 16 1002.0R
MILWAUKEE LAKESH 1250   44     240/ 11/ 12   N/A
S MID LAKE BUOY  1250   47 48  260/ 25/ 29 1002.6R   7/ 7
KENOSHA   LAKESH 1200   45     230/ 15/ 21 1003.0
$$

TC  - TEMPERATURE IN CELSIUS
VSB - VISIBILITY IN STATUTE MILES
WCI - WIND CHILL INDEX
HX  - HEAT INDEX





USA.gov is the U.S. government's official web portal to all federal, state and local government web resources and services.